Погода в Артёме

Россия / Приморский край     43°21′17″N   132°11′08″E
темп.,
°C
ветер,
м/с
пор.,
м/с
влажн.,
%
обл.,
%
осадки,
мм/ч
давл.,
гПа
погр.,
м
24 мая, вт
вт2401:00+10ю128899 0.0 101236
04:00+12юв2891100 1.4 1011228
07:00+13ююв1695100 4.2 1011263
10:00+15ю4785100 5.1 1012442
13:00+17ююз587737 0.5 1011464
16:00+17ююз478088 0.7 1009346
19:00+15юв259579 2.3 1008201
22:00+12в119985 2.5 100917
25 мая, ср
ср2501:00+12ююв119956 0.0 100923
04:00+12св019848 0.0 100814
07:00+13ссв129757 0.0 100967
10:00+17сз118242 0.0 1008393
13:00+21юз226490 0.0 1006693
16:00+20ююз326583 0.1 1005459
19:00+16ю2281100 0.1 1005131
22:00+13сз019589 0.2 100710
26 мая, чт
чт2601:00+12зюз229898 0.0 100638
04:00+12с1297100 0.0 100641
07:00+13с1194100 0.0 100688
10:00+17зсз2271100 0.0 1005464
13:00+13юз3392100 1.7 1005250
16:00+12вюв1396100 5.4 1004168
19:00+14сз019272 2.9 1003105
22:00+12з1198100 3.2 100359
27 мая, пт
пт2701:00+12сз1199100 0.3 100357
04:00+11зюз1199100 0.6 100371
07:00+12с1197100 0.0 1002102
10:00+14сз228594 0.1 1002468
13:00+17з2270100 0.1 1000633
16:00+17ююз327283 0.5 998535
19:00+12ююз3595100 2.4 998218
22:00+11ю1298100 4.9 999235
28 мая, сб
сб2801:00+11з1199100 1.2 999153
04:00+11ююз0199100 1.3 999111
07:00+11юз119797 0.0 100186
10:00+13ююз118669 0.0 1002403
13:00+18ююз226528 0.1 1001694
16:00+17ююз446928 0.1 1001395
19:00+14ю357993 0.0 1002191
22:00+12ююв228399 0.0 100432